Wind_Speed
36 36 35 34 33 33 33 32 32 31 31 31 31 31 31 31 30 30 31 32 32 33 33 34 35 36 36 37 38 38 39 39 39 39 39 39 40 41 42 43 44 44 45
38 37 36 36 35 34 34 33 32 32 32 32 32 31 31 31 31 32 32 33 34 35 35 36 37 38 38 39 39 40 40 41 41 41 40 40 41 43 43 45 46 47 47
38 38 37 36 36 35 34 34 34 33 33 32 32 32 32 32 32 33 34 35 35 36 37 38 39 40 41 41 42 42 42 43 44 44 44 43 42 43 43 45 47 48 49
38 38 38 37 36 35 35 35 34 34 34 33 33 33 33 33 34 34 35 36 37 37 38 40 41 42 43 43 44 44 44 45 45 46 47 47 46 46 44 45 47 49 50
38 38 38 37 36 36 35 35 35 35 35 34 34 34 34 35 35 36 36 37 38 39 41 42 43 43 44 45 46 46 47 47 47 47 48 49 49 50 49 47 47 49 51
36 36 37 36 36 36 35 35 36 36 36 36 35 35 36 36 37 37 38 39 40 42 43 44 45 45 46 47 47 48 48 48 48 49 49 50 50 52 53 52 51 51 51
35 35 35 35 35 35 35 36 36 36 36 36 37 37 37 38 38 39 40 41 42 44 45 46 47 47 48 49 49 49 49 50 50 50 51 52 53 54 55 56 56 55 54
35 35 34 34 34 35 35 36 36 37 37 37 38 38 38 39 40 41 42 43 44 46 47 48 48 49 50 50 50 50 51 51 51 52 52 53 54 56 57 58 60 60 58
34 34 33 33 34 35 35 36 36 37 37 38 38 39 40 41 42 43 44 45 46 47 48 49 50 51 51 51 51 51 52 52 53 53 54 54 56 57 59 60 62 63 63
33 32 32 32 33 34 35 35 36 37 37 38 39 40 41 42 43 44 45 46 48 49 49 51 52 52 52 52 52 52 52 53 54 54 55 56 57 58 60 61 63 65 66
31 32 32 32 32 33 34 35 36 36 37 39 40 41 42 44 45 46 47 48 49 50 51 52 52 52 52 52 52 53 53 54 55 56 57 58 59 60 61 63 64 65 67
31 32 32 32 32 33 34 35 36 37 38 40 41 42 44 45 46 47 48 49 51 52 52 52 52 52 53 53 53 54 55 56 56 57 58 59 60 61 62 63 65 66 69
32 32 32 32 33 33 34 36 37 38 40 41 42 44 45 46 47 48 49 51 52 52 53 53 53 53 53 54 55 55 56 57 57 58 59 60 61 62 63 65 67 69 71
33 33 33 33 34 35 36 37 38 40 41 42 43 44 46 47 48 49 50 51 52 53 53 53 53 54 54 55 56 56 57 57 58 59 60 61 62 64 66 68 70 72 74
34 34 35 35 36 36 37 38 39 40 41 42 44 45 46 48 49 50 51 52 52 53 53 53 54 55 55 56 57 57 57 58 59 60 61 63 65 67 69 72 74 76 79
34 35 36 36 36 37 38 39 40 41 42 43 44 46 47 49 50 50 51 52 52 52 53 53 54 55 56 57 58 59 59 60 61 62 64 66 69 71 73 76 78 81 83
34 35 36 37 37 37 38 39 40 42 43 44 45 47 48 49 50 50 51 51 52 52 53 55 56 56 57 58 59 60 61 63 64 66 68 70 73 75 78 80 82 83 85
34 35 35 36 37 37 38 40 41 42 43 44 46 47 49 49 49 50 50 51 53 54 55 55 56 57 59 60 62 63 64 66 67 70 72 75 77 80 83 84 85 84 83
34 34 35 36 37 38 39 40 41 43 44 46 47 47 48 48 49 50 51 53 54 54 55 56 58 59 60 62 64 66 67 69 71 73 76 80 82 84 87 87 86 83 79
34 35 36 37 38 38 40 41 42 43 45 46 46 47 47 48 49 51 52 53 55 56 57 58 60 61 63 65 67 70 72 74 75 78 81 84 87 87 87 86 83 79 74
35 36 37 38 39 40 41 42 43 44 45 46 46 47 48 49 50 52 53 55 56 57 59 60 61 63 66 68 71 74 77 79 81 83 84 86 87 86 83 81 78 74 70
35 36 37 38 40 41 42 42 43 44 45 46 46 47 49 50 51 53 55 56 58 59 60 62 63 66 69 71 74 77 81 83 85 86 86 86 84 81 78 75 72 68 63
36 37 37 39 40 41 42 43 43 44 45 46 47 48 50 51 53 55 56 58 60 61 63 65 67 69 72 75 78 81 83 85 87 87 86 83 79 76 72 68 64 60 55
36 37 38 39 40 41 41 42 43 44 45 47 48 49 51 53 55 56 58 60 62 64 66 69 72 74 76 78 81 83 84 86 86 85 81 76 72 68 63 59 55 51 47
37 38 39 40 40 40 41 42 44 45 47 48 49 51 53 54 56 58 60 62 64 68 71 73 76 78 80 81 84 85 86 86 84 80 74 69 64 59 54 51 47 44 41
38 38 39 40 41 41 42 44 45 46 48 49 51 53 55 57 59 60 62 65 68 71 74 77 80 82 83 84 85 85 84 82 78 73 67 62 57 53 48 44 41 38 36
Wind_Direction
271 271 271 272 273 274 275 275 274 274 274 275 275 276 277 278 278 280 282 284 286 287 288 289 290 291 291 291 292 292 291 290 289 288 286 285 285 284 284 284 284 284 284
271 271 270 271 273 274 273 273 273 273 273 273 274 275 276 277 278 280 281 283 285 286 287 289 290 290 291 291 291 291 291 291 289 288 286 284 284 284 284 284 284 284 284
269 269 269 270 271 272 272 272 272 272 273 272 272 273 274 276 278 280 281 283 285 287 288 289 290 291 291 292 292 292 291 291 290 289 287 285 283 282 283 284 284 284 284
267 267 267 269 269 270 270 270 271 271 271 271 271 272 274 276 278 280 282 284 286 288 289 290 291 292 292 292 292 292 292 291 291 290 289 288 286 284 281 281 282 282 283
265 265 266 267 268 268 268 269 269 270 270 270 271 273 275 277 279 281 283 285 287 289 291 292 293 293 294 293 293 293 292 292 291 290 290 289 288 287 285 283 282 283 283
264 264 265 265 266 266 266 267 268 268 269 270 272 273 276 278 280 282 284 286 289 290 292 293 294 294 294 294 294 294 293 293 292 291 291 290 289 288 288 287 285 284 284
263 264 264 264 264 264 265 266 267 268 269 270 272 274 276 279 281 283 285 287 289 291 293 294 295 295 295 295 295 294 294 293 293 292 292 291 291 290 290 289 288 287 286
261 262 262 262 263 263 264 265 267 268 269 271 273 275 277 280 282 284 286 288 290 292 294 295 296 296 295 295 295 295 294 294 293 293 293 292 292 292 292 291 291 289 288
260 261 261 261 261 262 263 265 267 269 270 272 274 276 279 281 284 286 288 289 291 293 294 295 296 296 296 296 296 295 295 294 294 294 293 293 293 293 293 293 293 292 291
259 258 258 259 260 262 263 265 267 269 271 273 275 278 280 283 285 287 289 290 292 293 295 295 296 296 296 296 296 296 296 295 295 294 294 294 294 294 294 294 294 294 293
258 258 258 259 261 262 264 266 268 270 272 274 277 279 282 284 286 288 290 291 293 294 295 296 296 296 296 296 296 296 296 296 295 295 295 294 294 294 294 295 295 295 295
256 257 258 261 262 264 265 267 269 271 274 276 279 281 283 285 287 289 291 292 293 295 295 296 296 296 296 296 296 296 296 296 296 296 295 295 295 295 296 296 296 296 296
257 258 260 263 264 266 268 269 271 273 276 278 281 283 285 287 289 291 292 293 294 295 296 296 296 297 297 297 297 297 297 297 297 297 296 296 296 297 297 297 297 297 298
259 260 263 264 266 268 270 272 274 276 278 280 282 284 286 288 290 292 293 294 295 296 296 297 297 297 297 297 297 298 298 298 298 298 298 298 298 298 298 299 299 299 299
259 261 264 266 268 270 273 275 277 279 280 282 284 286 288 290 292 293 294 295 295 296 297 297 297 298 298 298 298 299 299 299 299 299 299 299 299 300 300 300 300 300 300
262 263 265 267 270 272 274 277 279 280 282 284 286 288 290 292 293 294 295 295 296 297 297 298 299 299 299 300 300 300 300 300 300 300 300 300 301 301 301 301 302 302 301
267 268 269 271 272 275 277 279 281 283 284 286 288 290 292 293 294 294 295 296 297 298 298 299 299 300 300 300 301 301 301 301 301 301 302 302 302 302 302 302 303 303 302
270 271 273 275 276 278 280 282 284 285 287 289 290 292 293 294 294 295 296 297 298 299 299 300 300 301 301 301 301 301 302 302 303 303 303 303 303 303 303 303 303 303 302
275 275 276 277 279 281 283 284 286 287 289 290 292 293 294 294 295 296 297 298 299 299 300 301 301 301 301 301 302 302 302 303 303 304 304 304 304 304 304 304 303 302 301
276 277 278 279 281 283 284 286 287 289 290 292 293 294 294 295 296 297 298 298 299 300 301 301 302 302 302 302 302 303 303 304 304 305 306 306 306 306 305 304 303 302 300
277 279 280 281 283 284 286 287 289 290 292 293 294 294 295 296 297 297 298 299 300 301 301 302 302 303 303 304 304 304 305 305 306 306 306 306 306 305 304 303 302 301 300
279 280 281 283 284 286 287 289 290 292 293 294 294 295 296 297 298 299 300 300 301 302 302 302 303 304 304 305 305 305 306 306 307 307 307 307 306 305 304 302 301 300 299
281 282 283 284 286 287 289 290 292 293 294 295 295 296 297 298 299 300 301 301 302 302 303 303 304 304 305 305 306 306 307 307 307 308 308 307 306 305 304 302 301 299 298
282 284 285 287 288 289 290 292 293 294 295 296 296 297 298 299 300 301 302 302 303 303 304 304 305 305 306 306 306 307 307 307 307 308 308 307 306 305 304 302 300 299 297
284 286 287 288 289 290 292 293 294 295 296 297 297 298 299 300 300 301 302 303 304 304 305 305 306 306 307 307 307 307 308 308 308 308 308 307 306 305 303 301 300 298 296
286 287 288 290 291 292 293 294 296 297 297 298 298 299 300 301 301 302 303 304 305 305 306 307 307 307 308 308 308 308 309 309 308 308 308 308 307 305 303 300 299 296 294
Height
5804 5804 5805 5805 5804 5804 5803 5802 5801 5800 5799 5798 5796 5795 5794 5793 5792 5790 5789 5788 5786 5784 5782 5780 5778 5776 5774 5772 5769 5767 5765 5763 5761 5759 5758 5755 5752 5750 5747 5745 5743 5741 5739
5796 5796 5796 5797 5797 5796 5796 5795 5794 5793 5792 5791 5790 5789 5788 5786 5785 5784 5783 5781 5779 5777 5775 5773 5771 5769 5766 5764 5761 5759 5756 5753 5751 5750 5748 5747 5745 5741 5739 5736 5733 5731 5728
5788 5788 5788 5788 5789 5788 5788 5787 5787 5786 5785 5784 5783 5782 5781 5780 5779 5777 5776 5774 5772 5770 5768 5766 5763 5761 5758 5755 5752 5750 5747 5744 5741 5739 5737 5736 5735 5733 5731 5727 5723 5720 5717
5780 5780 5780 5780 5781 5781 5780 5780 5779 5779 5778 5777 5776 5775 5774 5773 5771 5770 5768 5767 5765 5762 5760 5758 5755 5752 5749 5746 5743 5740 5737 5734 5731 5728 5725 5723 5721 5720 5721 5719 5714 5710 5707
5771 5771 5772 5772 5773 5773 5773 5772 5772 5771 5770 5769 5768 5768 5767 5765 5764 5762 5760 5759 5756 5754 5751 5749 5746 5743 5740 5736 5733 5730 5727 5723 5720 5717 5714 5711 5708 5705 5704 5706 5703 5699 5695
5762 5763 5763 5764 5765 5765 5765 5764 5764 5763 5763 5762 5761 5760 5759 5757 5756 5754 5752 5750 5748 5745 5742 5739 5736 5733 5730 5726 5723 5719 5715 5712 5708 5705 5702 5698 5695 5692 5689 5688 5688 5686 5684
5754 5755 5755 5756 5756 5757 5757 5756 5756 5755 5755 5754 5753 5752 5751 5749 5748 5746 5744 5741 5739 5736 5733 5729 5726 5723 5719 5715 5712 5708 5704 5700 5697 5693 5689 5685 5682 5678 5675 5672 5670 5669 5668
5745 5746 5747 5748 5748 5749 5749 5748 5748 5747 5747 5746 5745 5744 5742 5741 5739 5737 5735 5732 5729 5726 5723 5719 5715 5712 5708 5704 5700 5696 5692 5688 5684 5680 5676 5672 5668 5664 5660 5656 5653 5651 5651
5737 5738 5739 5740 5740 5740 5741 5740 5740 5739 5739 5738 5737 5735 5734 5732 5730 5728 5726 5723 5719 5716 5713 5709 5705 5701 5697 5693 5688 5684 5680 5676 5672 5667 5663 5659 5654 5650 5645 5640 5636 5632 5630
5729 5730 5730 5731 5732 5732 5732 5732 5731 5731 5730 5729 5728 5727 5725 5723 5721 5718 5715 5712 5709 5705 5701 5698 5693 5689 5685 5681 5677 5672 5668 5663 5659 5654 5650 5645 5640 5636 5630 5625 5620 5614 5610
5721 5722 5723 5723 5724 5724 5724 5724 5723 5723 5722 5720 5719 5718 5716 5713 5711 5708 5705 5702 5698 5694 5690 5686 5682 5677 5673 5668 5664 5660 5655 5650 5645 5641 5636 5631 5626 5621 5615 5610 5604 5598 5592
5714 5714 5715 5716 5716 5716 5716 5715 5715 5714 5713 5712 5710 5708 5706 5703 5701 5697 5694 5690 5686 5682 5678 5674 5669 5665 5660 5656 5651 5647 5642 5637 5632 5627 5621 5616 5611 5605 5599 5594 5588 5582 5575
5706 5707 5707 5707 5708 5707 5707 5707 5706 5705 5703 5702 5700 5698 5696 5693 5689 5686 5683 5679 5674 5670 5666 5661 5657 5652 5647 5643 5638 5633 5628 5623 5617 5612 5606 5601 5595 5590 5583 5577 5571 5564 5557
5699 5699 5699 5699 5699 5699 5698 5697 5696 5695 5694 5692 5690 5688 5685 5682 5678 5675 5671 5666 5662 5657 5653 5648 5643 5639 5634 5629 5624 5619 5614 5609 5603 5597 5591 5585 5579 5573 5566 5560 5553 5545 5538
5691 5691 5691 5691 5691 5690 5689 5688 5687 5686 5684 5682 5679 5677 5673 5670 5666 5663 5658 5654 5649 5645 5640 5635 5630 5625 5620 5615 5610 5605 5600 5594 5588 5582 5575 5569 5562 5555 5548 5540 5533 5524 5516
5682 5682 5682 5682 5682 5681 5680 5679 5677 5676 5673 5671 5668 5665 5662 5658 5654 5650 5646 5641 5637 5632 5627 5622 5617 5611 5606 5600 5595 5590 5585 5579 5573 5566 5559 5552 5545 5537 5529 5520 5511 5502 5492
5673 5673 5673 5673 5673 5672 5671 5669 5667 5665 5663 5660 5657 5654 5650 5646 5642 5638 5633 5629 5624 5619 5614 5609 5603 5598 5591 5586 5580 5574 5569 5563 5556 5549 5542 5534 5526 5516 5508 5500 5491 5481 5469
5665 5665 5664 5664 5663 5662 5661 5659 5657 5654 5652 5649 5646 5642 5638 5634 5630 5625 5621 5616 5611 5606 5601 5595 5589 5583 5577 5570 5564 5558 5553 5546 5539 5531 5522 5514 5506 5495 5485 5477 5469 5459 5448
5656 5656 5655 5654 5653 5652 5650 5648 5646 5643 5641 5637 5634 5630 5626 5622 5617 5613 5608 5603 5598 5593 5587 5581 5575 5569 5562 5555 5548 5541 5535 5529 5522 5513 5503 5492 5484 5474 5462 5452 5444 5436 5426
5647 5646 5646 5645 5643 5642 5640 5638 5635 5632 5629 5626 5622 5618 5614 5609 5605 5600 5595 5590 5584 5579 5573 5567 5560 5553 5547 5539 5531 5523 5517 5511 5503 5494 5484 5471 5459 5449 5437 5426 5417 5410 5403
5638 5637 5636 5635 5633 5631 5629 5627 5624 5621 5617 5614 5610 5605 5601 5597 5592 5587 5582 5576 5571 5565 5559 5553 5546 5538 5530 5522 5513 5504 5495 5487 5480 5472 5462 5450 5437 5425 5414 5403 5393 5386 5379
5629 5627 5626 5625 5623 5621 5618 5616 5613 5609 5606 5602 5597 5593 5588 5584 5579 5573 5568 5562 5556 5550 5543 5537 5530 5522 5513 5504 5495 5485 5475 5464 5455 5447 5437 5426 5414 5403 5392 5382 5373 5365 5359
5619 5618 5616 5614 5612 5610 5607 5604 5601 5598 5594 5590 5585 5580 5576 5570 5565 5559 5553 5547 5540 5534 5527 5520 5513 5506 5497 5486 5475 5465 5454 5443 5432 5422 5412 5402 5391 5380 5371 5362 5354 5347 5342
5609 5608 5606 5604 5602 5599 5596 5593 5590 5586 5582 5577 5573 5568 5562 5557 5551 5545 5538 5532 5525 5517 5510 5502 5494 5487 5478 5467 5456 5445 5435 5423 5412 5401 5391 5380 5370 5360 5352 5345 5338 5332 5327
5600 5598 5596 5593 5591 5588 5585 5582 5578 5574 5570 5565 5560 5554 5549 5543 5537 5531 5524 5516 5509 5499 5491 5483 5473 5465 5457 5447 5434 5422 5412 5401 5389 5379 5370 5361 5352 5344 5337 5330 5324 5319 5316
5589 5587 5585 5582 5580 5577 5573 5570 5566 5562 5557 5552 5546 5541 5535 5529 5522 5516 5510 5501 5492 5484 5473 5462 5451 5442 5432 5423 5412 5400 5389 5378 5367 5357 5350 5342 5335 5328 5322 5317 5313 5309 5305